Home > Time Zones > World Clock > Weather > China > Hefei > Past weeks

Flag for China Weather past 2 weeks in Hefei, Anhui, China

Now
59 °F

Fog.


Feels Like: 60 °F
Forecast: 55 / 69 °F
Wind: 3 mph from West

Location: Hefei Airport

Current Time: Oct 21, 2014 at 8:35:57 PM

Latest Report: Oct 21, 2014 at 8:00 PM


Visibility: 2 mi

Pressure: 30.21 "Hg

Humidity: 94%

Dew point: 57 °F

Location of HefeiLocation

Historic Weather in Hefei — Graph

°F

Hefei temperature yesterday

Maximum temperature yesterday: 81 °F (at 1:00 PM)
Minimum temperature yesterday: 63 °F (at 6:00 AM)
Average temperature yesterday: 70 °F

Past Weeks' High & Low Weather Summary

 TemperatureHumidityPressure
High82 °F (Oct 19, 3:00 PM)100% (Oct 21, 3:00 AM)30.33 "Hg (Oct 21, 3:00 AM)
Low50 °F (Oct 14, 5:00 AM)30% (Oct 18, 3:00 PM)29.86 "Hg (Oct 20, 2:00 PM)
Average65 °F72%30.10 "Hg
* Reported Oct 6 7:00 PM — Oct 21 7:00 PM, Hefei, Weather by CustomWeather, © 2014

Note: Actual official high and low records may vary slightly from our data, if they occured in-between our weather recording intervals... More about our weather records

Advertising

Hefei weather history for previous 24 hours

 ConditionsComfort  
Time TempWeatherWind HumidityBarometerVisibility
7:00 PM
Oct 21
59 °FFog.1 mph94%30.18 "Hg2 mi
6:00 PM61 °FFog.3 mph94%30.18 "Hg2 mi
5:00 PM61 °FLight rain. Fog.8 mph94%30.15 "Hg2 mi
4:00 PM61 °FLight rain. Fog.8 mph94%30.12 "Hg3 mi
3:00 PM61 °FLight rain. Fog.13 mph94%30.12 "Hg3 mi
2:00 PM61 °FLight rain. Fog.15 mph94%30.09 "Hg2 mi
1:00 PM61 °FLight rain. Fog.13 mph94%30.09 "Hg1 mi
12:00 PM61 °FLight rain. Fog.13 mph94%30.09 "Hg1 mi
11:00 AM61 °FLight rain. Fog.10 mph100%30.09 "Hg1 mi
10:00 AM61 °FLight rain. Fog.10 mph94%30.09 "Hg1 mi
9:00 AM61 °FLight rain. Fog.10 mph94%30.09 "Hg2 mi
8:00 AM61 °FLight rain. Fog.13 mph94%30.04 "Hg2 mi
7:00 AM63 °FLight rain. Fog.10 mph94%30.01 "Hg2 mi
6:00 AM63 °FLight rain. Fog.10 mph94%29.98 "Hg3 mi
5:00 AM63 °FLight rain. Fog.10 mph100%29.95 "Hg3 mi
4:00 AM64 °FLight rain. Fog.8 mph94%29.95 "Hg1 mi
3:00 AM64 °FLight rain. Fog.8 mph100%29.95 "Hg1 mi
2:00 AM66 °FLight rain. Fog.8 mph94%29.95 "Hg1 mi
1:00 AM66 °FLight rain. Fog.6 mph94%29.95 "Hg1 mi
12:00 AM66 °FFog.6 mph94%29.95 "Hg1 mi
11:00 PM
Oct 20
66 °FLight rain. Fog.8 mph94%29.95 "Hg1 mi
10:00 PM68 °FLight rain. Fog.13 mph88%29.95 "Hg1 mi
9:00 PM70 °FFog.10 mph83%29.92 "Hg1 mi
8:00 PM70 °FFog.6 mph88%29.89 "Hg1 mi
Weather by CustomWeather, © 2014

See weather overviewHow to use our weather pages